Terminal Aerodrome Forecast
Issued by NWS

Home | Current Version | Previous Version | Graphics & Text | Print | Product List | Glossary On
Versions: 1 2 3 4 5 6 7 8 9 10 11 12 13 14 15 16 17 18
000
FTUS43 KGRB 231100
TAFATW
TAF
KATW 231136Z 2312/2412 23015G23KT P6SM BKN012 OVC120 WS017/25040KT
     FM231600 23014G23KT P6SM SCT015 OVC080 WS017/25040KT
      TEMPO 2319/2323 -RASN BKN060
     FM232300 25010KT P6SM SCT025 OVC050
     FM240300 28008KT P6SM OVC012=

USA.gov is the U.S. government's official web portal to all federal, state and local government web resources and services.